Regional Weather Roundup
Issued by NWS

Home | Current Version | Previous Version | Text Only | Print | Product List | Glossary On
Versions: 1 2 3 4 5 6 7 8 9 10 11 12 13 14 15 16 17 18 19 20 21 22 23 24 25 26 27 28 29 30 31 32 33 34 35 36 37 38 39 40 41 42 43 44 45 46 47 48 49 50
000
ASUS43 KBIS 250620
RWRND

NORTH DAKOTA REGIONAL WEATHER ROUNDUP
NATIONAL WEATHER SERVICE BISMARCK ND
100 AM CDT FRI APR 25 2014

NOTE: "FAIR" INDICATES FEW OR NO CLOUDS BELOW 12,000 FEET WITH NO
SIGNIFICANT WEATHER AND/OR OBSTRUCTIONS TO VISIBILITY.


NDZ001>003-009>011-017-250700-
NORTHWEST NORTH DAKOTA

CITY           SKY/WX    TMP DP  RH WIND       PRES   REMARKS
WILLISTON      CLOUDY    39  30  70 CALM      29.71S
6HR MIN TEMP:  35; 6HR MAX TEMP:  59;

MINOT          FAIR      38  31  76 SW7       29.69F
MINOT AFB      FAIR      36  33  90 NW6       29.69S
$$

NDZ018>021-031>035-040>046-250700-
SOUTHWEST NORTH DAKOTA

CITY           SKY/WX    TMP DP  RH WIND       PRES   REMARKS
BISMARCK       CLEAR     34  29  82 CALM      29.75S
6HR MIN TEMP:  34; 6HR MAX TEMP:  61;

DICKINSON      MOCLDY    42  26  53 SW8       29.74S
GARRISON         N/A     39  32  76 CALM      29.71F
6HR MIN TEMP:  38; 6HR MAX TEMP:  59;

HETTINGER ARPT CLOUDY    48  28  46 NW9       29.78S
$$

NDZ004>008-012>016-024-026-027-054-250700-
NORTHEAST NORTH DAKOTA

CITY           SKY/WX    TMP DP  RH WIND       PRES   REMARKS
GRAND FORKS    FOG       39  38  96 NE5       29.71S VSB 1/2
GRND FRKS AFB  FOG       40  40 100 N5        29.72S VSB 1/2
DEVILS LAKE    CLOUDY    37  34  87 SW5       29.72S VSB 1/2
$$

NDZ022-023-025-028>030-036>039-047>053-250700-
SOUTHEAST NORTH DAKOTA

CITY           SKY/WX    TMP DP  RH WIND       PRES   REMARKS
FARGO          FOG       38  37  97 W7        29.72R VSB 1/2
6HR MIN TEMP:  36; 6HR MAX TEMP:  50; 6HR PCP:  0.04;

JAMESTOWN      FAIR      37  34  89 W3        29.72S
$$




USA.gov is the U.S. government's official web portal to all federal, state and local government web resources and services.